Location: Our Prairie Sky
(41.4667°N, 87.7000°W)
Time: 22:06:56
(UTC-05:00)

N. Korean satellite - Visible Passes

Search period start: 19 September 2019 00:00
Search period end: 29 September 2019 00:00
Orbit: 455 x 509 km, 97.2° (Epoch: 18 September)

Date Brightness Start Highest point End Pass type
(mag) Time Alt. Az. Time Alt. Az. Time Alt. Az.
21 Sep 9.9 05:54:02 10° ENE 05:56:01 15° E 05:58:01 10° SE visible
24 Sep 9.3 06:10:57 10° NE 06:13:50 24° E 06:16:41 10° SSE visible
25 Sep 10.1 05:47:03 10° ENE 05:48:26 12° E 05:49:49 10° ESE visible
26 Sep 10.2 19:03:59 10° WSW 19:05:46 13° W 19:07:33 10° WNW visible
28 Sep 9.7 06:03:37 10° NE 06:06:14 20° E 06:08:51 10° SE visible
